Location: Chervonnoye
(48.6000°N, 34.4000°E)
Time: 23:00:31
(UTC+00:00)

CAS-4B - Visible Passes

Search period start: 03 December 2021 00:00
Search period end: 13 December 2021 00:00
Orbit: 529 x 539 km, 43.0° (Epoch: 03 December)

Date Brightness Start Highest point End Pass type
(mag) Time Alt. Az. Time Alt. Az. Time Alt. Az.
07 Dec ? 16:28:50 10° SSW 16:29:26 12° S 16:29:26 12° S visible
08 Dec ? 16:17:20 10° SSW 16:19:03 17° S 16:19:03 17° S visible
09 Dec ? 16:05:55 10° SSW 16:08:38 21° SSE 16:08:38 21° SSE visible
10 Dec ? 15:54:34 10° SW 15:57:54 24° SSE 15:58:09 24° SSE visible
11 Dec ? 15:43:16 10° SW 15:46:44 27° SSE 15:47:39 24° SE visible
11 Dec ? 17:22:31 10° WSW 17:22:57 13° WSW 17:22:57 13° WSW visible
12 Dec ? 15:32:00 10° SW 15:35:34 29° SSE 15:37:08 22° SE visible
12 Dec ? 17:11:23 10° WSW 17:12:26 16° WSW 17:12:26 16° WSW visible
